User: anonymous
Location: Caltech
(34.1382°N, 118.1253°W)
Time: 02:37:55
(UTC-07:00)
Language:

ATLAS 5 CENTAUR R/B - Orbit

View from above orbital plane
View from above orbital plane
View from above satellite
View from above satellite

Ground track
Ground track

The orbit data is extracted from the following two-line orbital elements,

1 30778U 07006G   14110.48560227  .00069849  00000-0  12578-2 0  9529
2 30778 035.6846 147.5288 0009161 018.5552 122.7140 15.48612974395941
Epoch (UTC): 20 April 2014 11:39:16
Eccentricity: 0.0009161
inclination: 35.6846°
perigee height: 414 km
apogee height: 427 km
right ascension of ascending node: 147.5288°
argument of perigee: 18.5552°
revolutions per day: 15.48612974
mean anomaly at epoch: 122.7140°
orbit number at epoch: 39594

The dashed part of the orbit path shows where the satellite is in the earth's shadow,  

DLR